Meteo Giornale » Osservazioni meteo Tanzania » Kilimanjaro
ore: 00:00 - Osservazioni Meteo Kilimanjaro
Lat. 3° 25' S Lon. 37° 4' E Alt. 891 metri s.l.m.
19 °C
Molto Nuvoloso
Temp. 24 Ore
17 °C
25 °C
Est
14.8 Km/h
Dew point 16 °C
Umidità 82 %
Visibilità 10 Km
Il sole sorge alle ore 06:30
Il sole tramonta alle ore 18:33
| Data e Ora | Cielo e Fenomeni | T °C | DP °C | Um. % | Pres. hPa | Vis. km | Vento km/h | |
|---|---|---|---|---|---|---|---|---|
| Oggi h: 00:00 | Molto Nuvoloso | 19 | 16 | 82 | 1023 | 10 | E 14.8 | |
| Ieri h: 23:00 | Molto Nuvoloso | 20 | 17 | 82 | 1023 | 10 | E 24 | |
| Ieri h: 22:00 | Molto Nuvoloso | 20 | 17 | 82 | 1023 | 10 | E/NE 11.1 | |
| Ieri h: 21:00 | Nuvoloso | 22 | 17 | 73 | 1022 | 10 | E 16.7 | |
| Ieri h: 20:00 | Nuvoloso | 21 | 16 | 73 | 1022 | 10 | E/NE 7.4 | |
| Ieri h: 19:00 | Molto Nuvoloso | 23 | 16 | 64 | 1021 | 10 | NE 11.1 | |
| Ieri h: 17:00 | Molto Nuvoloso | 25 | 17 | 61 | 1021 | 10 | E 13 | |
| Ieri h: 16:00 | Molto Nuvoloso | 25 | 17 | 61 | 1021 | 10 | E/NE 24 | |
| Ieri h: 15:00 | Molto Nuvoloso | 25 | 16 | 57 | 1021 | 10 | E 16.7 | |
| Ieri h: 14:00 | Molto Nuvoloso | 25 | 16 | 57 | 1023 | 10 | N 7.4 | |
| Ieri h: 13:00 | Molto Nuvoloso | 24 | 17 | 64 | 1024 | 10 | N 7.4 | |
| Ieri h: 12:00 | Molto Nuvoloso | 22 | 17 | 73 | 1025 | 10 | N 3.7 | |
| Ieri h: 11:00 | Molto Nuvoloso | 21 | 17 | 77 | 1025 | 10 | N 5.5 | |
| Ieri h: 10:00 | Molto Nuvoloso | 20 | 17 | 82 | 1026 | 10 | N 3.7 | |
| Ieri h: 09:00 | Molto Nuvoloso | 18 | 17 | 93 | 1026 | 10 | NE 7.4 | |
| Ieri h: 08:00 | Nuvoloso | 17 | 17 | 100 | 1025 | 3 | E 11.1 | |
| Ieri h: 07:00 | Nuvoloso | 17 | 17 | 100 | 1024 | 10 | N 3.7 | |
| Ieri h: 06:00 | Nuvoloso | 17 | 16 | 93 | 1024 | 10 | N 3.7 | |
| Ieri h: 05:00 | Nuvoloso | 17 | 17 | 100 | 1023 | 10 | N 3.7 | |
| Ieri h: 04:00 | Nuvoloso | 17 | 17 | 100 | 1023 | 10 | N 1.8 | |
| Ieri h: 03:00 | Nuvoloso | 18 | 17 | 93 | 1023 | 10 | N 5.5 | |



